EW5657 Weather Reports


Display with metric or nautical units.
time (UTC)temp
F
wind
direction
speed
MPH
gust
MPH
rain 1hr
in
rain 24hr
in
rain mn
in
humidity
%
barometer
mb
20260504001014 62 303 7.0 16.0 0.00 0.12 0.00 68 1011.7
20260504000516 62 340 7.0 18.0 0.00 0.13 0.00 69 1011.7
20260504000012 62 26 6.0 18.0 0.00 0.15 0.00 69 1011.7
20260503235517 62 19 7.0 17.0 0.00 0.17 0.00 69 1011.7
20260503235511 62 340 6.0 17.0 0.00 0.18 0.00 69 1011.6
20260503234510 62 303 5.0 17.0 0.00 0.19 0.00 70 1011.6
20260503234011 62 301 5.0 17.0 0.00 0.21 0.00 70 1011.6
20260503233517 61 314 8.0 18.0 0.00 0.21 0.00 71 1011.7
20260503233512 61 8 7.0 18.0 0.00 0.21 0.00 70 1011.8
20260503232513 61 345 6.0 16.0 0.00 0.22 0.00 71 1011.7
20260503232012 61 1 6.0 16.0 0.00 0.22 0.00 71 1011.7
20260503231512 61 336 6.0 14.0 0.00 0.22 0.00 71 1011.7
20260503231010 61 332 5.0 14.0 0.00 0.22 0.00 71 1011.8
20260503230511 61 329 5.0 14.0 0.00 0.22 0.00 72 1011.8
20260503230011 60 324 6.0 17.0 0.00 0.22 0.00 72 1011.9
20260503225513 60 342 6.0 17.0 0.00 0.22 0.00 72 1011.8
20260503225011 60 351 6.0 15.0 0.00 0.22 0.00 73 1011.8
20260503224512 60 343 6.0 15.0 0.00 0.22 0.00 73 1011.8
20260503224017 60 0 6.0 19.0 0.00 0.22 0.00 74 1011.8
20260503224011 60 312 6.0 19.0 0.00 0.22 0.00 74 1011.8
20260503223637 60 343 6.0 14.0 0.00 0.22 0.00 74 1011.9
20260503222510 60 355 5.0 13.0 0.00 0.22 0.00 74 1012.0
20260503222011 59 347 5.0 19.0 0.00 0.22 0.00 74 1012.1
20260503221511 59 343 6.0 19.0 0.00 0.22 0.00 74 1011.9
20260503221020 59 335 5.0 13.0 0.00 0.22 0.00 75 1012.1
20260503221010 59 322 5.0 15.0 0.00 0.22 0.00 75 1012.0
20260503220512 59 324 5.0 15.0 0.00 0.22 0.00 75 1011.9
20260503215509 59 353 5.0 19.0 0.00 0.22 0.00 75 1012.0
20260503215008 59 340 5.0 19.0 0.00 0.22 0.00 75 1012.0
20260503214508 58 345 5.0 15.0 0.00 0.22 0.00 75 1011.9
20260503214008 58 342 4.0 12.0 0.00 0.22 0.00 75 1011.9
20260503213510 58 352 4.0 13.0 0.00 0.22 0.00 75 1011.9
20260503213009 58 343 4.0 13.0 0.00 0.22 0.00 75 1011.9
20260503212506 58 341 3.0 10.0 0.00 0.22 0.00 75 1011.9
20260503212013 58 1 3.0 10.0 0.00 0.22 0.00 75 1011.7
20260503212007 58 307 3.0 10.0 0.00 0.22 0.00 75 1011.7
20260503211005 58 328 2.0 7.0 0.00 0.22 0.00 75 1011.7
20260503210512 58 322 3.0 9.0 0.00 0.22 0.00 75 1011.6
20260503210506 58 332 2.0 9.0 0.00 0.22 0.00 75 1011.6
20260503210133 58 348 3.0 11.0 0.00 0.22 0.00 76 1011.7
20260503205007 58 335 3.0 11.0 0.00 0.22 0.00 76 1011.7
20260503204509 58 335 3.0 8.0 0.00 0.22 0.00 76 1011.7
20260503204008 58 339 3.0 7.0 0.00 0.22 0.00 76 1011.7
20260503203505 58 327 2.0 7.0 0.00 0.22 0.00 77 1011.6
20260503203005 58 330 2.0 8.0 0.00 0.22 0.00 77 1011.6
20260503202504 58 330 2.0 8.0 0.00 0.22 0.00 77 1011.6
20260503202002 58 318 2.0 9.0 0.00 0.22 0.00 77 1011.6
20260503201504 58 312 2.0 9.0 0.00 0.22 0.00 77 1011.5
20260503201003 58 328 3.0 7.0 0.00 0.22 0.00 77 1011.5
20260503200503 58 333 3.0 9.0 0.00 0.22 0.00 78 1011.4
20260503200003 58 318 2.0 9.0 0.00 0.22 0.00 78 1011.4
20260503195503 58 326 3.0 8.0 0.00 0.22 0.00 78 1011.4
20260503195001 58 326 4.0 12.0 0.00 0.22 0.00 78 1011.4
20260503194502 57 336 3.0 15.0 0.00 0.22 0.00 79 1011.5
20260503194000 57 348 3.0 15.0 0.00 0.22 0.00 79 1011.5
20260503193501 57 343 3.0 10.0 0.00 0.22 0.00 80 1011.4
20260503193007 57 344 2.0 6.0 0.00 0.22 0.00 80 1011.5
20260503193001 57 339 3.0 6.0 0.00 0.22 0.00 80 1011.5
20260503192628 57 356 1.0 5.0 0.00 0.22 0.00 81 1011.5
20260503191459 57 357 1.0 5.0 0.00 0.22 0.00 81 1011.7
20260503190959 57 347 2.0 6.0 0.00 0.22 0.00 82 1011.8
20260503190506 56 351 1.0 5.0 0.00 0.22 0.00 82 1011.9
20260503190501 57 347 2.0 6.0 0.00 0.22 0.00 82 1011.9
20260503185505 56 48 0.0 6.0 0.00 0.22 0.00 82 1012.0
20260503185459 56 2 1.0 6.0 0.00 0.22 0.00 82 1011.9
20260503184457 56 330 0.0 3.0 0.00 0.22 0.00 82 1012.1
20260503183959 56 330 0.0 3.0 0.00 0.22 0.00 82 1012.0
20260503183458 57 328 1.0 2.0 0.00 0.22 0.00 82 1012.1
20260503182959 57 328 1.0 3.0 0.00 0.22 0.00 82 1012.1
20260503182459 57 327 1.0 4.0 0.00 0.22 0.00 82 1012.1
20260503181956 57 327 2.0 4.0 0.00 0.22 0.00 82 1012.1
20260503181455 57 327 2.0 9.0 0.00 0.22 0.00 82 1012.1
20260503180955 57 326 3.0 9.0 0.00 0.22 0.00 82 1012.2
20260503180455 57 351 2.0 5.0 0.00 0.22 0.00 82 1012.2
20260503175955 57 351 2.0 5.0 0.00 0.22 0.00 82 1012.3
20260503175455 57 351 2.0 5.0 0.00 0.22 0.00 82 1012.3
20260503174957 57 352 2.0 6.0 0.00 0.22 0.00 82 1012.4
20260503174456 57 333 2.0 6.0 0.00 0.22 0.00 81 1012.4
20260503174124 58 320 2.0 5.0 0.00 0.22 0.00 81 1012.4
20260503174002 57 339 2.0 5.0 0.00 0.22 0.00 81 1012.4
20260503173956 57 345 2.0 5.0 0.00 0.22 0.00 81 1012.4
20260503172457 58 335 2.0 5.0 0.00 0.22 0.00 81 1012.5
20260503171958 58 337 2.0 5.0 0.00 0.22 0.00 81 1012.5
20260503171953 58 338 2.0 5.0 0.00 0.22 0.00 81 1012.5
20260503170954 58 338 2.0 5.0 0.00 0.22 0.00 81 1012.6
20260503170501 58 336 2.0 9.0 0.00 0.22 0.00 81 1012.6
20260503170454 58 337 2.0 5.0 0.00 0.22 0.00 81 1012.5
20260503150941 59 37 2.0 7.0 0.00 0.22 0.00 81 1012.8
20260503150441 59 341 2.0 6.0 0.00 0.22 0.00 81 1012.7
20260503130937 60 332 4.0 9.0 0.00 0.22 0.22 79 1013.3
20260503130435 60 327 3.0 9.0 0.00 0.22 0.22 78 1013.3
20260503110433 61 353 1.0 3.0 0.00 0.22 0.22 73 1013.1
20260503081415 63 295 2.0 7.0 0.00 0.22 0.22 63 1011.7
20260503080914 63 294 2.0 7.0 0.00 0.22 0.22 62 1011.7
20260503080413 63 293 2.0 9.0 0.00 0.22 0.22 61 1011.8
20260503072912 65 301 1.0 4.0 0.00 0.22 0.22 61 1011.6
20260503072413 65 301 2.0 6.0 0.00 0.22 0.22 61 1011.6
20260503071911 65 301 2.0 6.0 0.00 0.22 0.22 61 1011.6
20260503071413 65 301 2.0 6.0 0.00 0.22 0.22 60 1011.5
20260503070913 65 301 2.0 6.0 0.00 0.22 0.22 59 1011.4
20260503070413 66 301 2.0 8.0 0.00 0.22 0.22 58 1011.4
20260503054905 65 29 4.0 9.0 0.00 0.22 0.22 72 1011.0
20260503054403 65 326 3.0 8.0 0.00 0.22 0.22 74 1011.0
20260503053902 65 299 3.0 11.0 0.00 0.22 0.22 75 1011.1
20260503053402 65 297 3.0 11.0 0.00 0.22 0.22 75 1011.1
20260503052907 65 299 3.0 9.0 0.00 0.22 0.22 75 1011.0
20260503052903 65 312 3.0 9.0 0.00 0.22 0.22 75 1011.1
20260503052006 65 295 3.0 11.0 0.00 0.22 0.22 75 1011.0
20260503050859 65 297 4.0 8.0 0.00 0.22 0.22 75 1011.1
20260503050402 65 351 4.0 10.0 0.00 0.22 0.22 76 1011.1
20260503045859 65 321 5.0 11.0 0.00 0.22 0.22 76 1011.1
20260503045359 65 313 5.0 11.0 0.00 0.22 0.22 76 1010.9
20260503044900 65 322 5.0 13.0 0.00 0.22 0.22 77 1011.0
20260503044401 65 316 5.0 13.0 0.00 0.22 0.22 77 1010.9
20260503043906 65 320 5.0 12.0 0.00 0.22 0.22 79 1010.8
20260503043901 65 339 4.0 13.0 0.00 0.22 0.22 78 1011.0
20260503042903 65 325 5.0 12.0 0.00 0.22 0.22 79 1010.8
20260503042405 65 288 6.0 13.0 0.00 0.22 0.22 80 1010.9
20260503041855 65 337 7.0 14.0 0.00 0.22 0.22 80 1010.9
20260503041357 65 305 7.0 16.0 0.00 0.22 0.22 79 1010.8
20260503040856 67 300 5.0 16.0 0.00 0.22 0.22 79 1010.8
20260503040355 68 301 5.0 14.0 0.00 0.22 0.22 80 1010.6
20260503035855 68 336 6.0 15.0 0.00 0.22 0.22 80 1010.6
20260503035355 68 335 6.0 15.0 0.00 0.22 0.22 79 1010.6
20260503034855 69 22 7.0 14.0 0.00 0.22 0.22 78 1010.6
20260503034355 69 328 6.0 14.0 0.00 0.22 0.22 77 1010.5
20260503033855 69 337 5.0 15.0 0.00 0.22 0.22 77 1010.5
20260503033355 69 297 4.0 15.0 0.00 0.22 0.22 77 1010.4
20260503032901 69 334 5.0 13.0 0.00 0.22 0.22 77 1010.5
20260503032855 69 333 4.0 12.0 0.00 0.22 0.22 77 1010.4
20260503031855 69 320 6.0 16.0 0.00 0.22 0.22 76 1010.6
20260503031355 69 314 8.0 16.0 0.00 0.22 0.22 76 1010.7
20260503030855 69 333 7.0 16.0 0.00 0.22 0.22 76 1010.6
20260503030401 69 346 8.0 20.0 0.00 0.22 0.22 75 1010.6
20260503030355 69 301 8.0 18.0 0.00 0.22 0.22 76 1010.6
20260503025356 69 291 8.0 20.0 0.01 0.22 0.22 75 1010.7
20260503024854 69 3 8.0 16.0 0.01 0.22 0.22 75 1010.9
20260503024357 69 341 8.0 20.0 0.01 0.22 0.22 77 1010.7
20260503024351 69 335 8.0 18.0 0.01 0.22 0.22 76 1010.8
20260503024022 69 349 6.0 22.0 0.01 0.22 0.22 80 1010.7
20260503022851 69 357 5.0 22.0 0.01 0.22 0.22 83 1010.7
20260503022351 68 354 4.0 11.0 0.01 0.22 0.22 85 1010.6
20260503021852 67 1 4.0 14.0 0.01 0.22 0.22 87 1010.6
20260503021349 67 351 3.0 14.0 0.02 0.22 0.22 88 1010.5
20260503020848 67 354 3.0 11.0 0.04 0.22 0.22 89 1010.6
20260503020351 66 354 4.0 11.0 0.06 0.22 0.22 89 1010.7
20260503020346 66 310 3.0 11.0 0.04 0.22 0.22 89 1010.6
20260503015345 65 326 4.0 11.0 0.05 0.21 0.21 90 1010.7
20260503014847 65 335 4.0 14.0 0.05 0.21 0.21 90 1010.8
20260503014346 65 352 5.0 15.0 0.05 0.21 0.21 89 1010.8
20260503013851 64 339 3.0 13.0 0.06 0.21 0.21 89 1010.4
20260503013845 64 6 4.0 15.0 0.05 0.21 0.21 89 1010.9
20260503012846 65 339 3.0 9.0 0.07 0.21 0.21 89 1010.6
20260503012345 65 335 3.0 9.0 0.08 0.21 0.21 89 1010.6
20260503011850 65 8 4.0 11.0 0.09 0.20 0.20 89 1010.4
20260503011844 65 327 3.0 11.0 0.09 0.21 0.21 89 1010.8
20260503010845 65 12 5.0 12.0 0.09 0.18 0.18 89 1010.6
20260503010345 65 15 4.0 12.0 0.09 0.18 0.18 89 1010.6
20260503005844 65 2 3.0 14.0 0.09 0.17 0.17 89 1011.0
20260503005346 65 25 3.0 14.0 0.11 0.17 0.17 88 1010.7
20260503004845 65 12 3.0 9.0 0.13 0.17 0.17 88 1011.0
20260503004345 65 6 4.0 16.0 0.14 0.17 0.17 88 1011.0
20260503003845 65 0 4.0 16.0 0.16 0.17 0.17 88 1010.8
20260503003345 65 12 4.0 15.0 0.15 0.16 0.16 88 1011.2
20260503002843 65 0 4.0 15.0 0.13 0.14 0.15 87 1011.0
20260503002344 65 16 3.0 10.0 0.13 0.13 0.13 87 1011.3
20260503001843 65 16 3.0 7.0 0.12 0.12 0.12 86 1011.5